Location: Bonham
(33.5773°N, 96.1783°W)
Time: 22:39:10
(UTC+00:00)

Cosmos 2233 Rocket - Visible Passes

Search period start: 18 November 2025 00:00
Search period end: 28 November 2025 00:00
Orbit: 953 x 988 km, 82.9° (Epoch: 18 November)

Date Brightness Start Highest point End Pass type
(mag) Time Alt. Az. Time Alt. Az. Time Alt. Az.
18 Nov 6.6 09:13:30 10° NE 09:16:31 14° ENE 09:19:31 10° E visible
18 Nov 3.8 10:57:29 17° NNW 11:02:22 72° W 11:08:31 10° S visible
19 Nov 6.2 00:21:31 10° SW 00:26:40 26° WNW 00:31:54 10° NNW visible
19 Nov 5.8 09:39:33 24° NE 09:40:56 26° ENE 09:46:00 10° SE visible
19 Nov 4.4 11:24:17 31° NW 11:26:14 38° W 11:31:51 10° SSW visible
20 Nov 6.7 00:47:58 10° W 00:51:06 14° WNW 00:54:15 10° NW visible
20 Nov 4.8 10:05:36 47° E 10:05:36 47° E 10:11:07 10° SSE visible
20 Nov 5.1 11:50:18 20° W 11:50:18 20° W 11:54:16 10° SW visible
21 Nov 4.6 10:31:17 46° S 10:31:17 46° S 10:35:26 10° S visible
21 Nov 5.8 23:47:50 10° SW 23:53:27 34° WNW 23:59:07 10° NNW visible
22 Nov 6.7 09:12:02 10° ESE 09:12:02 10° ESE 09:12:05 10° ESE visible
22 Nov 5.3 10:56:43 24° SSW 10:56:43 24° SSW 10:59:04 10° SSW visible
23 Nov 6.6 00:13:35 10° WSW 00:17:47 18° WNW 00:22:00 10° NNW visible
23 Nov 6.5 09:37:18 11° SE 09:37:18 11° SE 09:37:38 10° SE visible
25 Nov 6.4 23:39:35 10° SW 23:44:30 24° WNW 23:49:27 10° NNW visible
27 Nov 6.8 00:06:34 10° W 00:08:57 12° WNW 00:11:20 10° NW visible
